[[{"header":{"parameterUnit":"m.s-1","parameterCategory":1,"la1":30.2991,"la2":30.254,"lo1":-89.0895,"lo2":-89.0444,"dy":0.0017,"dx":0.0017,"nx":28,"ny":28,"refTime":"2023-07-30T09:00:00:Z","depth":0,"parameterNumber":2,"parameterNumberName":"U-component_of_WINDS"},"data":[0,0,0,0,0,0,0,0,0,0,0,0,0,0,0,0,0,0,0,0,0,0,0,0,0,0,0,0,0,0,0,0,0,0,0,0,0,0,0,0,0,0,0,0,0,0,0,0,0,0,0,0,0,0,0,0,0,0,4.0155,4.0157,0,4.0284,4.0285,4.0286,4.0214,4.0211,4.0207,4.0204,4.0337,4.0344,4.0351,0,0,0,0,0,0,0,0,0,0,0,0,0,3.9849,3.9855,4.0155,4.0157,4.0158,4.0283,4.0285,4.0287,4.0215,4.0211,4.0206,4.0202,4.0335,4.0343,4.0351,0,0,0,0,0,0,0,0,0,0,0,0,0,3.998,3.9857,4.0155,4.0138,4.0137,4.0283,4.0285,4.0287,4.0216,4.0211,4.0205,4.02,4.0332,4.0342,4.0353,4.0523,0,0,4.0384,4.0389,0,0,0,0,0,0,0,0,3.9973,3.9991,4.0139,4.0139,4.0139,4.0227,4.0226,4.0367,4.0217,4.0186,4.0204,4.0198,4.0305,4.0317,4.0353,4.0529,4.0535,4.0385,4.0391,4.0396,4.0399,0,0,0,0,0,0,0,3.9964,3.9985,4.0206,4.0141,4.0141,4.0124,4.0136,4.0252,4.0274,4.0189,4.0184,4.02,4.0304,4.0344,4.0356,4.0537,4.0385,4.0394,4.04,4.0404,4.0857,4.0862,0,0,0,0,0,0,3.9955,3.9978,4.0202,4.021,4.0041,4.0133,4.0148,4.0205,4.0273,4.0278,4.0204,4.0196,4.0329,4.0344,4.036,4.0562,4.0396,4.0405,4.0411,4.0851,4.0858,4.0864,0,0,0,0,0,0,3.9949,3.9976,4.0197,4.0093,4.0119,4.0144,4.0209,4.021,4.0249,4.0284,4.0288,4.024,4.0325,4.0346,4.0482,4.0566,4.041,4.0419,4.0844,4.0853,4.0861,4.0968,0,0,0,0,0,0,3.9941,3.9974,4.0039,4.0095,4.0125,4.0317,4.0214,4.0216,4.0267,4.0257,4.0319,4.0324,4.0322,4.0467,4.0493,4.0577,4.0427,4.0836,4.0848,4.0858,4.0957,4.0979,4.0998,0,0,0,0,0,3.993,4.0066,4.0043,4.007,4.0207,4.0322,4.0339,4.0334,4.0274,4.0339,4.0361,4.0322,4.0553,4.0482,4.051,4.0599,4.0831,4.0845,4.0857,4.0948,4.0975,4.0998,0,0,0,0,0,0,4.0021,4.0073,4.0048,4.0206,4.026,4.0309,4.0392,4.0363,4.0436,4.0424,4.0415,4.0429,4.0571,4.0599,4.0519,4.0766,4.0683,4.0702,4.0742,4.0768,4.0788,4.0778,4.0436,0,0,0,0,0,4.0059,4.0147,4.0188,4.0323,4.0351,4.0367,4.0417,4.0408,4.0464,4.0486,4.0519,4.0575,4.066,4.0716,4.0796,4.0962,4.0973,4.1036,4.1057,4.1074,4.109,4.1176,4.1204,4.0907,4.0907,4.0907,0,0,4.0139,4.0178,4.0235,4.0342,4.0383,4.0474,4.0387,4.0488,4.0555,4.0502,4.0631,4.0658,4.072,4.0871,4.0939,4.0898,4.1174,4.109,4.1103,4.111,4.1193,4.1221,4.1246,4.0916,4.0914,4.0913,0,0,4.033,4.037,4.0485,4.0527,4.059,4.0599,4.0627,4.0681,4.0695,4.0826,4.0787,4.0867,4.1014,4.1059,4.1101,4.1308,4.1274,4.1335,4.1441,4.1526,4.1549,4.157,4.1641,4.1667,4.1351,4.1351,4.1351,0,4.0422,4.0557,4.0549,4.0652,4.0699,4.0654,4.077,4.0812,4.0898,4.0932,4.0885,4.1066,4.1105,4.1264,4.1315,4.1351,4.1381,4.1326,4.1547,4.1567,4.1587,4.1654,4.1681,4.1358,4.1357,4.1357,4.1356,0,4.0665,4.076,4.0846,4.0928,4.0985,4.1095,4.1102,4.1162,4.1147,4.1162,4.1294,4.1338,4.1425,4.1463,4.1451,4.1621,4.1593,4.1547,4.1463,4.1622,4.1685,4.1711,4.1368,4.1365,4.1363,4.1362,0,0,4.0918,4.0992,4.1023,4.1059,4.1124,4.1196,4.1303,4.1387,4.1437,4.1498,4.1586,4.1711,4.1668,4.1716,4.1708,4.1783,4.1941,4.1728,4.1729,4.1763,4.2127,4.2159,4.219,4.1919,4.1924,4.1928,4.2121,0,4.1111,4.1296,4.1291,4.1463,4.1549,4.1507,4.16,4.1649,4.1666,4.1741,4.1759,4.1846,4.1784,4.1812,4.1885,4.1906,4.2013,4.1893,4.2,4.2004,4.1983,4.2223,4.2258,4.2438,4.2146,4.215,4.2153,0,4.1362,4.1429,4.1609,4.1659,4.1695,4.1778,4.1853,4.1926,4.1981,4.1987,4.204,4.202,4.2128,4.2042,4.2189,4.2107,4.2151,4.2168,4.2175,4.2183,4.2087,4.2235,4.2495,4.2521,4.2193,4.219,4.2187,0,4.1524,4.166,4.1784,4.1816,4.1878,4.1937,4.1966,4.2016,4.2066,4.2132,4.2164,4.2243,4.2285,4.2346,4.2348,4.2286,4.2496,4.2411,4.2503,4.2503,4.2547,4.2544,4.2816,4.258,4.258,4.2579,4.2579,0,4.1739,4.1851,4.1857,4.1934,4.2057,4.205,4.2172,4.2195,4.2239,4.2319,4.2289,4.2364,4.2363,4.244,4.2442,4.2562,4.2583,4.259,4.2588,4.2591,4.259,4.2618,4.2605,4.2586,4.2585,4.2583,4.2582,0,4.1941,4.195,4.2082,4.2129,4.2144,4.2232,4.2272,4.2345,4.2357,4.2459,4.2482,4.2503,4.2591,4.2599,4.2703,4.2704,4.2849,4.2836,4.283,4.2826,4.2917,4.2907,4.3214,4.3253,4.2994,4.2997,4.2999,0,4.2076,4.216,4.2216,4.2266,4.2298,4.2381,4.243,4.2427,4.248,4.2548,4.2612,4.2697,4.2765,4.2909,4.2933,4.3012,4.2999,4.3101,4.301,4.3009,4.2997,4.2991,4.2998,4.3118,4.312,4.3123,4.3125,0,4.2315,4.2315,4.2388,4.2463,4.2523,4.2582,4.2637,4.268,4.2683,4.2745,4.2834,4.2887,4.2991,4.3076,4.3153,4.3182,4.3154,4.3153,4.3178,4.318,4.3172,4.3175,4.2875,4.3146,4.3144,4.3142,4.3141,4.314,4.2486,4.2558,4.2607,4.2689,4.2729,4.2781,4.285,4.2871,4.2945,4.3029,4.3022,4.3121,4.3172,4.3272,4.3307,4.3384,4.3349,4.3386,4.3395,4.3404,4.3411,4.3162,4.3398,4.3398,4.3397,4.3397,4.3396,0,4.2721,4.275,4.2825,4.2902,4.2966,4.2933,4.2992,4.3048,4.3134,4.3184,4.3251,4.3353,4.3434,4.3464,4.3544,4.3599,4.3588,4.362,4.3615,4.3621,4.3439,4.3408,4.3627,4.3627,4.3627,4.3627,4.3627,4.3627,4.285,4.2969,4.2974,4.3113,4.3141,4.3236,4.3272,4.3319,4.3358,4.3473,4.354,4.3558,4.36,4.3682,4.3755,4.3761,4.3791,4.3828,4.3829,4.3658,4.3634,4.3612,4.3583,4.3835,4.3835,4.4004,4.4006,4.4007]},{"header":{"parameterUnit":"m.s-1","parameterCategory":1,"la1":30.2991,"la2":30.254,"lo1":-89.0895,"lo2":-89.0444,"dy":0.0017,"dx":0.0017,"nx":28,"ny":28,"refTime":"2023-07-30T09:00:00:Z","depth":0,"parameterNumber":3,"parameterNumberName":"V-component_of_WINDS"},"data":[0,0,0,0,0,0,0,0,0,0,0,0,0,0,0,0,0,0,0,0,0,0,0,0,0,0,0,0,0,0,0,0,0,0,0,0,0,0,0,0,0,0,0,0,0,0,0,0,0,0,0,0,0,0,0,0,0,0,2.23,2.23,0,2.2278,2.2277,2.2277,2.2212,2.221,2.2209,2.2208,2.2185,2.2185,2.2186,0,0,0,0,0,0,0,0,0,0,0,0,0,2.2284,2.2285,2.23,2.23,2.2299,2.2278,2.2277,2.2277,2.2212,2.221,2.2209,2.2207,2.2184,2.2185,2.2186,0,0,0,0,0,0,0,0,0,0,0,0,0,2.2279,2.2285,2.23,2.2264,2.2261,2.2278,2.2277,2.2277,2.2212,2.221,2.2208,2.2206,2.2184,2.2185,2.2186,2.2236,0,0,2.2189,2.219,0,0,0,0,0,0,0,0,2.228,2.228,2.227,2.2267,2.2263,2.2245,2.2263,2.2263,2.2213,2.2231,2.2208,2.2205,2.2206,2.2206,2.2206,2.2235,2.2234,2.219,2.219,2.2191,2.2191,0,0,0,0,0,0,0,2.228,2.2281,2.2291,2.227,2.2266,2.2249,2.2246,2.2263,2.2231,2.2229,2.2224,2.2223,2.2204,2.2205,2.2205,2.2233,2.2189,2.219,2.2191,2.2192,2.2299,2.2301,0,0,0,0,0,0,2.2286,2.2281,2.2292,2.229,2.2266,2.2251,2.2247,2.2253,2.2231,2.2225,2.2224,2.222,2.2204,2.2204,2.2204,2.2258,2.2191,2.2192,2.2192,2.2297,2.2299,2.2302,0,0,0,0,0,0,2.2286,2.2287,2.2293,2.2285,2.2284,2.2253,2.226,2.2254,2.2255,2.2227,2.2221,2.2231,2.2203,2.2202,2.2228,2.2257,2.2192,2.2193,2.2294,2.2297,2.23,2.237,0,0,0,0,0,0,2.2286,2.2288,2.2307,2.2285,2.2285,2.2318,2.2262,2.2255,2.2257,2.225,2.2232,2.2227,2.2201,2.2226,2.2229,2.2257,2.2194,2.2291,2.2295,2.2299,2.2364,2.2375,2.2384,0,0,0,0,0,2.2285,2.2328,2.2308,2.231,2.2308,2.2319,2.2319,2.2288,2.226,2.2278,2.226,2.2227,2.2254,2.223,2.2232,2.2261,2.2289,2.2294,2.2299,2.236,2.2373,2.2383,0,0,0,0,0,0,2.2353,2.2324,2.2302,2.2339,2.2332,2.2308,2.2331,2.2303,2.2304,2.2298,2.226,2.2256,2.2286,2.2276,2.225,2.2306,2.2266,2.2272,2.2312,2.2323,2.2333,2.2334,2.2195,0,0,0,0,0,2.2373,2.2385,2.2359,2.2394,2.2391,2.2362,2.2366,2.2343,2.2334,2.2331,2.2314,2.2307,2.2313,2.2318,2.2322,2.2363,2.2357,2.2384,2.2394,2.2402,2.2406,2.2425,2.2436,2.2318,2.2318,2.2318,0,0,2.2413,2.2398,2.2409,2.2407,2.2399,2.2411,2.236,2.2376,2.2384,2.2333,2.2355,2.2343,2.2332,2.2365,2.2378,2.2357,2.2438,2.2408,2.2414,2.2415,2.2431,2.2442,2.2452,2.2321,2.2321,2.232,0,0,2.2492,2.2483,2.251,2.2503,2.2491,2.2471,2.2477,2.2457,2.2447,2.2469,2.243,2.2439,2.2452,2.2444,2.2443,2.2517,2.2487,2.252,2.2569,2.2588,2.2597,2.2605,2.2629,2.2639,2.2525,2.2525,2.2525,0,2.2543,2.2561,2.2528,2.2545,2.2545,2.2499,2.2525,2.252,2.251,2.251,2.2487,2.25,2.2489,2.2519,2.2537,2.2537,2.2542,2.2521,2.2598,2.2606,2.2613,2.2636,2.2646,2.2529,2.2529,2.2528,2.2528,0,2.2623,2.2636,2.2659,2.265,2.2652,2.2675,2.2644,2.265,2.2627,2.2609,2.2631,2.2616,2.2616,2.2621,2.2599,2.2647,2.2634,2.2605,2.2563,2.2629,2.2649,2.2658,2.2535,2.2533,2.2532,2.2531,0,0,2.2744,2.2716,2.2725,2.2719,2.2702,2.2711,2.273,2.273,2.2735,2.273,2.2744,2.2754,2.2727,2.2725,2.2701,2.2718,2.2775,2.2687,2.2686,2.2702,2.2824,2.2845,2.2856,2.2755,2.2757,2.2758,2.2824,0,2.2817,2.2849,2.2819,2.2856,2.2866,2.2822,2.2838,2.2829,2.2813,2.2818,2.28,2.2807,2.2772,2.277,2.2784,2.2765,2.2799,2.276,2.2767,2.2767,2.2769,2.2867,2.2889,2.2952,2.2833,2.2834,2.2835,0,2.2907,2.2904,2.2942,2.2921,2.2924,2.294,2.2935,2.2942,2.293,2.2917,2.2914,2.2885,2.2901,2.2861,2.2882,2.2856,2.2857,2.2848,2.285,2.2848,2.2804,2.2866,2.2972,2.298,2.2848,2.2847,2.2846,0,2.2989,2.2995,2.3018,2.3015,2.2991,2.3003,2.2993,2.2979,2.298,2.2977,2.2976,2.2975,2.2974,2.2973,2.2944,2.2918,2.2968,2.2926,2.2956,2.2957,2.2967,2.2967,2.3073,2.2971,2.2971,2.2971,2.2971,0,2.3072,2.3096,2.3054,2.3068,2.3094,2.3059,2.3085,2.3071,2.3058,2.3068,2.303,2.304,2.3002,2.3007,2.2985,2.3004,2.3004,2.2993,2.2986,2.2995,2.2997,2.2994,2.2988,2.2973,2.2973,2.2972,2.2972,0,2.3167,2.3141,2.3162,2.3137,2.3132,2.3151,2.313,2.3141,2.3122,2.3134,2.3135,2.3105,2.3109,2.308,2.308,2.3064,2.3094,2.308,2.3097,2.3093,2.3123,2.312,2.323,2.3242,2.3135,2.3136,2.3137,0,2.3222,2.3239,2.3216,2.3219,2.3212,2.3218,2.3219,2.3185,2.3187,2.3173,2.3186,2.3187,2.3186,2.3194,2.3172,2.317,2.3156,2.3194,2.3155,2.3163,2.3153,2.3152,2.3153,2.3202,2.3203,2.3205,2.3205,0,2.332,2.3305,2.3307,2.3304,2.3305,2.3302,2.3295,2.33,2.3263,2.3267,2.327,2.327,2.3268,2.3269,2.3263,2.3252,2.3222,2.3218,2.3224,2.3233,2.3241,2.3235,2.3118,2.3215,2.3214,2.3214,2.3213,2.3213,2.3395,2.3407,2.3392,2.3395,2.3387,2.3381,2.339,2.3371,2.3374,2.3369,2.3349,2.3356,2.3342,2.3331,2.3323,2.3327,2.3308,2.3318,2.332,2.3322,2.3327,2.3242,2.3326,2.3326,2.3325,2.3325,2.3325,0,2.3489,2.3477,2.348,2.3471,2.3473,2.3446,2.3437,2.344,2.3446,2.3436,2.3435,2.3438,2.3438,2.3416,2.3413,2.342,2.3406,2.342,2.3419,2.3416,2.3345,2.3339,2.3432,2.3432,2.3432,2.3432,2.3431,2.3431,2.3538,2.3557,2.3541,2.3554,2.3542,2.3548,2.3545,2.3539,2.353,2.3535,2.3535,2.3521,2.3505,2.35,2.3498,2.3492,2.3491,2.351,2.3498,2.3432,2.3421,2.3412,2.3405,2.3511,2.3511,2.3569,2.3569,2.357]}]]